Location: Cronhütte
(48.9135°N, 9.6869°E)
Time: 20:49:14
(UTC+00:00)

USA 267 - Pass Details

Date: 23 May 2024
Orbit: 1100 x 1107 km, 123.0° (Epoch: 21 May)

Event Time Altitude Azimuth Distance (km) Brightness Sun altitude
Rises 00:15:07 0° 56° (ENE) 3,922 6.9 -19.3°
Reaches altitude 10° 00:17:36 10° 55° (NE) 2,963 6.2 -19.2°
Maximum altitude 00:24:08 75° 332° (NNW) 1,139 3.4 -18.9°
Enters shadow 00:30:21 12° 249° (WSW) 2,843 5.1 -18.6°
